FIN602 EFIV-EFHK

Flight info

Callsign FIN602
Flight time N/A
Altitude 37000
Route SOTIT2D SOTIT DCT UGMOR DCT IBOSU Y86 LUSEP LUSEP5A
Aircraft A21N/M-SDE2E3FGHIRWXY/LB1

Departure

Time 2026-04-23 11:38
Airport Ivalo Airport (EFIV)

Arrival

Time N/A
Airport Helsinki Vantaa Airport (EFHK)
Time Latitude Longitude Altitude Speed Heading
2026-04-23 11:13 68.60922 27.42003 480 ft 0 kts 137°
2026-04-23 11:31 68.60923 27.42001 480 ft 1 kts 137°
2026-04-23 11:31 68.60934 27.41977 479 ft 2 kts 162°
2026-04-23 11:31 68.60949 27.41973 479 ft 2 kts 190°
2026-04-23 11:32 68.60963 27.41989 479 ft 1 kts 219°
2026-04-23 11:32 68.60968 27.42001 479 ft 1 kts 231°
2026-04-23 11:32 68.60970 27.42009 479 ft 0 kts 227°
2026-04-23 11:34 68.60967 27.41998 479 ft 3 kts 227°
2026-04-23 11:34 68.60945 27.41892 477 ft 9 kts 250°
2026-04-23 11:35 68.60962 27.41688 473 ft 13 kts 309°
2026-04-23 11:35 68.61047 27.41524 467 ft 15 kts
2026-04-23 11:35 68.61131 27.41707 467 ft 15 kts 46°
2026-04-23 11:35 68.61201 27.41911 473 ft 16 kts 45°
2026-04-23 11:36 68.61279 27.42133 479 ft 14 kts 49°
2026-04-23 11:36 68.61366 27.42402 486 ft 20 kts 46°
2026-04-23 11:36 68.61422 27.42667 490 ft 11 kts 67°
2026-04-23 11:36 68.61466 27.42744 490 ft 7 kts 297°
2026-04-23 11:37 68.61453 27.42650 489 ft 4 kts 222°
2026-04-23 11:37 68.61419 27.42551 488 ft 0 kts 227°
2026-04-23 11:37 68.61409 27.42518 488 ft 3 kts 229°
2026-04-23 11:37 68.61361 27.42382 486 ft 32 kts 223°
2026-04-23 11:38 68.61018 27.41343 468 ft 112 kts 229°
2026-04-23 11:38 68.60316 27.39408 546 ft 165 kts 228°
2026-04-23 11:38 68.59534 27.37152 1267 ft 164 kts 232°
2026-04-23 11:38 68.58789 27.34961 1972 ft 157 kts 233°
2026-04-23 11:39 68.58048 27.32768 2455 ft 163 kts 234°
2026-04-23 11:39 68.57267 27.30451 2901 ft 170 kts 234°
2026-04-23 11:39 68.56755 27.28950 3249 ft 172 kts 234°
2026-04-23 11:43 68.56458 27.28082 3450 ft 172 kts 235°
2026-04-23 11:43 68.56197 27.27320 3622 ft 173 kts 235°
2026-04-23 11:45 68.55966 27.26645 3772 ft 173 kts 235°
2026-04-23 11:45 68.55142 27.24240 4285 ft 176 kts 236°
2026-04-23 11:45 68.54307 27.21803 4779 ft 179 kts 237°
2026-04-23 11:46 68.53446 27.19294 5262 ft 183 kts 237°
2026-04-23 11:46 68.52571 27.16749 5722 ft 189 kts 238°
2026-04-23 11:46 68.51641 27.14011 6015 ft 206 kts 238°
2026-04-23 11:46 68.50532 27.11220 6338 ft 235 kts 218°
2026-04-23 11:47 68.48836 27.10134 6659 ft 272 kts 183°
2026-04-23 11:47 68.46900 27.10821 7028 ft 292 kts 172°
2026-04-23 11:47 68.44862 27.11930 7385 ft 309 kts 172°
2026-04-23 11:47 68.42742 27.12976 8079 ft 313 kts 174°
2026-04-23 11:48 68.40607 27.13878 8904 ft 313 kts 174°
2026-04-23 11:48 68.38450 27.14674 9606 ft 315 kts 175°
2026-04-23 11:48 68.36278 27.15404 10218 ft 321 kts 175°
2026-04-23 11:48 68.34026 27.16133 10592 ft 334 kts 175°
2026-04-23 11:49 68.31714 27.16878 11180 ft 339 kts 175°
2026-04-23 11:49 68.29376 27.17621 11830 ft 341 kts 175°
2026-04-23 11:49 68.27026 27.18377 12465 ft 344 kts 175°
2026-04-23 11:49 68.24654 27.19014 13071 ft 346 kts 179°
2026-04-23 11:50 68.22262 27.18988 13637 ft 348 kts 187°
2026-04-23 11:50 68.19875 27.18310 14204 ft 350 kts 191°
2026-04-23 11:50 68.17445 27.17463 14750 ft 354 kts 192°
2026-04-23 11:50 68.15005 27.16589 15272 ft 358 kts 192°
2026-04-23 11:51 68.12539 27.15719 15823 ft 361 kts 192°
2026-04-23 11:51 68.10053 27.14857 16329 ft 366 kts 192°
2026-04-23 11:51 68.07541 27.14000 16814 ft 369 kts 192°
2026-04-23 11:51 68.04998 27.13144 17286 ft 373 kts 192°
2026-04-23 11:52 68.02424 27.12279 17750 ft 377 kts 192°
2026-04-23 11:52 67.99815 27.11405 18210 ft 382 kts 192°
2026-04-23 11:52 67.97162 27.10519 18636 ft 386 kts 193°
2026-04-23 11:52 67.94507 27.09635 19052 ft 391 kts 193°
2026-04-23 11:53 67.91793 27.08731 19472 ft 395 kts 193°
2026-04-23 11:53 67.89092 27.07840 19879 ft 398 kts 193°
2026-04-23 11:53 67.86331 27.06930 20264 ft 402 kts 193°
2026-04-23 11:53 67.83539 27.06013 20671 ft 405 kts 193°
2026-04-23 11:54 67.80772 27.05096 21039 ft 409 kts 193°
2026-04-23 11:54 67.77917 27.04165 21358 ft 414 kts 193°
2026-04-23 11:54 67.75070 27.03235 21689 ft 418 kts 193°
2026-04-23 11:54 67.72200 27.02296 22022 ft 422 kts 193°
2026-04-23 11:55 67.69276 27.01347 22365 ft 426 kts 193°
2026-04-23 11:55 67.66338 27.00395 22701 ft 429 kts 193°
2026-04-23 11:55 67.63387 26.99439 23022 ft 433 kts 193°
2026-04-23 11:55 67.60406 26.98484 23336 ft 436 kts 194°
2026-04-23 11:56 67.57391 26.97511 23649 ft 440 kts 193°
2026-04-23 11:56 67.54348 26.96535 23938 ft 444 kts 194°
2026-04-23 11:56 67.51286 26.95557 24248 ft 447 kts 194°
2026-04-23 11:56 67.48219 26.94576 24540 ft 450 kts 194°
2026-04-23 11:57 67.45072 26.93574 24828 ft 454 kts 194°
2026-04-23 11:57 67.41953 26.92586 25134 ft 456 kts 194°
2026-04-23 11:57 67.38803 26.91583 25430 ft 459 kts 194°
2026-04-23 11:57 67.35635 26.90577 25689 ft 463 kts 194°
2026-04-23 11:58 67.32451 26.89572 25982 ft 466 kts 194°
2026-04-23 11:58 67.29248 26.88565 26271 ft 469 kts 194°
2026-04-23 11:58 67.26015 26.87554 26552 ft 471 kts 194°
2026-04-23 11:58 67.22756 26.86532 26837 ft 474 kts 194°
2026-04-23 11:59 67.19501 26.85519 27120 ft 477 kts 194°
2026-04-23 11:59 67.16206 26.84494 27381 ft 480 kts 194°
2026-04-23 11:59 67.12938 26.83478 27631 ft 483 kts 194°
2026-04-23 11:59 67.09609 26.82450 27883 ft 486 kts 194°
2026-04-23 12:00 67.06262 26.81425 28160 ft 488 kts 194°
2026-04-23 12:00 67.02894 26.80390 28448 ft 490 kts 194°
2026-04-23 12:00 66.99525 26.79353 28738 ft 492 kts 194°
2026-04-23 12:00 66.96121 26.78312 28991 ft 495 kts 194°
2026-04-23 12:01 66.92700 26.77266 29269 ft 497 kts 194°
2026-04-23 12:01 66.89281 26.76224 29492 ft 501 kts 194°
2026-04-23 12:01 66.85812 26.75174 29698 ft 504 kts 194°
2026-04-23 12:01 66.82375 26.74139 30027 ft 502 kts 194°
2026-04-23 12:02 66.78920 26.73101 30328 ft 502 kts 194°
2026-04-23 12:02 66.75475 26.72076 30601 ft 502 kts 195°
2026-04-23 12:02 66.72029 26.71043 30813 ft 502 kts 194°
2026-04-23 12:02 66.68579 26.69993 31018 ft 503 kts 194°
2026-04-23 12:03 66.65085 26.68953 31229 ft 504 kts 194°
2026-04-23 12:03 66.61631 26.67921 31443 ft 504 kts 194°
2026-04-23 12:03 66.58192 26.66905 31654 ft 504 kts 193°
2026-04-23 12:03 66.54701 26.65876 31873 ft 505 kts 194°
2026-04-23 12:04 66.51244 26.64857 32096 ft 504 kts 194°
2026-04-23 12:04 66.47755 26.63830 32338 ft 504 kts 194°
2026-04-23 12:04 66.44304 26.62816 32538 ft 505 kts 193°
2026-04-23 12:04 66.40821 26.61792 32727 ft 507 kts 193°
2026-04-23 12:05 66.37343 26.60782 32935 ft 507 kts 193°
2026-04-23 12:05 66.33855 26.59770 33132 ft 508 kts 193°
2026-04-23 12:05 66.30351 26.58757 33371 ft 508 kts 193°
2026-04-23 12:05 66.26846 26.57749 33580 ft 508 kts 192°
2026-04-23 12:06 66.23364 26.56744 33779 ft 509 kts 193°
2026-04-23 12:06 66.19875 26.55740 33989 ft 509 kts 193°
2026-04-23 12:06 66.12858 26.53720 34389 ft 510 kts 192°
2026-04-23 12:07 66.09354 26.52719 34572 ft 512 kts 192°
2026-04-23 12:07 66.05827 26.51718 34755 ft 513 kts 191°
2026-04-23 12:07 66.02314 26.50721 34913 ft 514 kts 191°
2026-04-23 12:07 65.98780 26.49726 35078 ft 515 kts 191°
2026-04-23 12:08 65.95213 26.48723 35306 ft 514 kts 191°